Time,TemperatureF,DewpointF,PressureIn,WindDirection,WindDirectionDegrees,WindSpeedMPH,WindSpeedGustMPH,Humidity,HourlyPrecipIn,Conditions,Clouds,dailyrainin,SoftwareType,DateUTC
2013-02-23 00:00:00,40.7,17.4,30.03,South,190,0.0,2.0,38,0.00,,---,0.00,VWS V14.00,2013-02-23 08:00:00,
2013-02-23 00:09:00,42.6,18.5,30.03,SSW,209,11.0,14.0,38,0.00,,---,0.00,VWS V14.00,2013-02-23 08:09:00,
2013-02-23 00:14:00,43.0,18.8,30.03,SSW,196,8.0,20.0,38,0.00,,---,0.00,VWS V14.00,2013-02-23 08:14:00,
2013-02-23 00:19:00,43.0,19.5,30.02,SSW,195,9.0,22.0,38,0.00,,---,0.00,VWS V14.00,2013-02-23 08:19:00,
2013-02-23 00:24:00,43.2,19.6,30.02,SSW,196,9.0,18.0,38,0.00,,---,0.00,VWS V14.00,2013-02-23 08:24:00,
2013-02-23 00:29:00,43.2,20.2,30.02,South,190,8.0,22.0,40,0.00,,---,0.00,VWS V14.00,2013-02-23 08:29:00,
2013-02-23 00:34:00,43.0,20.0,30.02,South,188,7.0,20.0,40,0.00,,---,0.00,VWS V14.00,2013-02-23 08:34:00,
2013-02-23 00:39:00,43.0,20.6,30.01,South,186,8.0,19.0,40,0.00,,---,0.00,VWS V14.00,2013-02-23 08:39:00,
2013-02-23 00:44:00,43.2,20.8,30.01,South,186,6.0,10.0,40,0.00,,---,0.00,VWS V14.00,2013-02-23 08:44:00,
2013-02-23 00:49:00,43.3,20.3,30.01,South,186,7.0,13.0,40,0.00,,---,0.00,VWS V14.00,2013-02-23 08:49:00,
2013-02-23 00:54:00,43.3,20.3,30.01,South,186,9.0,11.0,40,0.00,,---,0.00,VWS V14.00,2013-02-23 08:54:00,
2013-02-23 00:59:00,43.6,20.6,30.00,South,186,6.0,12.0,40,0.00,,---,0.00,VWS V14.00,2013-02-23 08:59:00,
2013-02-23 01:04:00,43.8,21.4,30.00,SSW,209,12.0,19.0,40,0.00,,---,0.00,VWS V14.00,2013-02-23 09:04:00,
2013-02-23 01:09:00,44.1,21.0,30.00,SSW,210,10.0,18.0,40,0.00,,---,0.00,VWS V14.00,2013-02-23 09:09:00,
2013-02-23 01:14:00,43.9,20.9,30.00,SSW,194,4.0,20.0,40,0.00,,---,0.00,VWS V14.00,2013-02-23 09:14:00,
2013-02-23 01:19:00,43.6,21.2,30.00,SSW,192,12.0,15.0,40,0.00,,---,0.00,VWS V14.00,2013-02-23 09:19:00,
2013-02-23 01:24:00,43.6,21.2,29.99,South,188,14.0,20.0,40,0.00,,---,0.00,VWS V14.00,2013-02-23 09:24:00,
2013-02-23 01:29:00,43.5,21.7,29.99,South,189,16.0,21.0,42,0.00,,---,0.00,VWS V14.00,2013-02-23 09:29:00,
2013-02-23 01:34:00,43.2,21.4,29.99,South,188,9.0,18.0,42,0.00,,---,0.00,VWS V14.00,2013-02-23 09:34:00,
2013-02-23 01:39:00,43.3,21.5,29.98,South,188,9.0,22.0,42,0.00,,---,0.00,VWS V14.00,2013-02-23 09:39:00,
2013-02-23 01:44:00,43.0,21.8,29.98,South,185,11.0,14.0,42,0.00,,---,0.00,VWS V14.00,2013-02-23 09:44:00,
2013-02-23 01:49:00,42.7,22.0,29.98,South,179,7.0,16.0,44,0.00,,---,0.00,VWS V14.00,2013-02-23 09:49:00,
2013-02-23 01:54:00,42.4,22.3,29.98,South,179,10.0,14.0,44,0.00,,---,0.00,VWS V14.00,2013-02-23 09:54:00,
2013-02-23 01:59:00,42.0,22.0,29.98,South,179,8.0,14.0,44,0.00,,---,0.00,VWS V14.00,2013-02-23 09:59:00,
2013-02-23 02:04:00,41.9,22.4,29.98,South,179,8.0,14.0,46,0.00,,---,0.00,VWS V14.00,2013-02-23 10:04:00,
2013-02-23 02:09:00,41.8,22.8,29.98,South,179,0.0,10.0,46,0.00,,---,0.00,VWS V14.00,2013-02-23 10:09:00,
2013-02-23 02:14:00,41.3,22.4,29.98,South,179,0.0,0.0,46,0.00,,---,0.00,VWS V14.00,2013-02-23 10:14:00,
2013-02-23 02:19:00,40.9,22.5,29.97,SSE,157,12.0,30.0,48,0.00,,---,0.00,VWS V14.00,2013-02-23 10:19:00,
2013-02-23 02:24:00,42.0,22.5,29.97,SSW,194,5.0,25.0,46,0.00,,---,0.00,VWS V14.00,2013-02-23 10:24:00,
2013-02-23 02:29:00,41.2,22.3,29.97,SSW,194,6.0,13.0,46,0.00,,---,0.00,VWS V14.00,2013-02-23 10:29:00,
2013-02-23 02:34:00,41.1,20.0,29.97,SSW,211,6.0,12.0,42,0.00,,---,0.00,VWS V14.00,2013-02-23 10:34:00,
2013-02-23 02:39:00,43.7,16.8,29.96,WSW,253,10.0,28.0,34,0.00,,---,0.00,VWS V14.00,2013-02-23 10:39:00,
2013-02-23 02:44:00,44.9,14.2,29.94,WSW,244,18.0,32.0,28,0.00,,---,0.00,VWS V14.00,2013-02-23 10:44:00,
2013-02-23 02:49:00,45.3,16.1,29.93,WSW,254,24.0,37.0,30,0.00,,---,0.00,VWS V14.00,2013-02-23 10:49:00,
2013-02-23 02:54:00,45.3,14.5,29.93,WSW,240,14.0,33.0,28,0.00,,---,0.00,VWS V14.00,2013-02-23 10:54:00,
2013-02-23 02:59:00,44.9,17.9,29.93,WSW,240,15.0,24.0,34,0.00,,---,0.00,VWS V14.00,2013-02-23 10:59:00,
2013-02-23 03:04:00,45.8,16.5,29.92,WSW,246,23.0,38.0,30,0.00,,---,0.00,VWS V14.00,2013-02-23 11:04:00,
2013-02-23 03:09:00,45.0,20.6,29.91,SW,232,20.0,32.0,38,0.00,,---,0.00,VWS V14.00,2013-02-23 11:09:00,
2013-02-23 03:14:00,44.3,20.6,29.91,SW,228,21.0,31.0,38,0.00,,---,0.00,VWS V14.00,2013-02-23 11:14:00,
2013-02-23 03:19:00,43.4,22.1,29.92,SW,225,12.0,25.0,42,0.00,,---,0.00,VWS V14.00,2013-02-23 11:19:00,
2013-02-23 03:24:00,43.9,22.6,29.91,SW,227,18.0,56.0,42,0.00,,---,0.00,VWS V14.00,2013-02-23 11:24:00,
2013-02-23 03:29:00,44.1,21.6,29.91,SW,220,30.0,37.0,40,0.00,,---,0.00,VWS V14.00,2013-02-23 11:29:00,
2013-02-23 03:34:00,43.7,21.3,29.91,SSW,207,20.0,34.0,40,0.00,,---,0.00,VWS V14.00,2013-02-23 11:34:00,
2013-02-23 03:39:00,42.9,21.7,29.91,SW,227,10.0,24.0,42,0.00,,---,0.00,VWS V14.00,2013-02-23 11:39:00,
2013-02-23 03:44:00,43.3,18.5,29.91,WSW,240,24.0,28.0,36,0.00,,---,0.00,VWS V14.00,2013-02-23 11:44:00,
2013-02-23 03:54:00,43.3,21.5,29.90,WSW,238,24.0,37.0,42,0.00,,---,0.00,VWS V14.00,2013-02-23 11:54:00,
2013-02-23 03:59:00,43.1,21.3,29.90,SW,225,14.0,34.0,42,0.00,,---,0.00,VWS V14.00,2013-02-23 11:59:00,
2013-02-23 04:04:00,42.4,21.2,29.90,SW,236,19.0,24.0,42,0.00,,---,0.00,VWS V14.00,2013-02-23 12:04:00,
2013-02-23 04:09:00,42.6,20.9,29.90,WSW,238,11.0,24.0,42,0.00,,---,0.00,VWS V14.00,2013-02-23 12:09:00,
2013-02-23 04:14:00,42.5,20.2,29.91,WSW,258,10.0,23.0,40,0.00,,---,0.00,VWS V14.00,2013-02-23 12:14:00,
2013-02-23 04:19:00,43.2,18.4,29.91,West,266,18.0,29.0,36,0.00,,---,0.00,VWS V14.00,2013-02-23 12:19:00,
2013-02-23 04:24:00,43.3,19.1,29.91,West,279,16.0,31.0,38,0.00,,---,0.00,VWS V14.00,2013-02-23 12:24:00,
2013-02-23 04:29:00,43.7,16.1,29.89,WNW,284,15.0,33.0,32,0.00,,---,0.00,VWS V14.00,2013-02-23 12:29:00,
2013-02-23 04:34:00,43.6,17.4,29.89,WSW,257,15.0,29.0,34,0.00,,---,0.00,VWS V14.00,2013-02-23 12:34:00,
2013-02-23 04:39:00,43.3,16.5,29.89,West,271,25.0,35.0,34,0.00,,---,0.00,VWS V14.00,2013-02-23 12:39:00,
2013-02-23 04:44:00,43.5,16.0,29.88,West,264,34.0,34.0,32,0.00,,---,0.00,VWS V14.00,2013-02-23 12:44:00,
2013-02-23 04:49:00,43.5,16.7,29.89,WSW,247,25.0,35.0,34,0.00,,---,0.00,VWS V14.00,2013-02-23 12:49:00,
2013-02-23 04:54:00,43.7,16.1,29.89,WNW,292,29.0,38.0,32,0.00,,---,0.00,VWS V14.00,2013-02-23 12:54:00,
2013-02-23 04:59:00,43.2,17.1,29.90,West,259,21.0,33.0,34,0.00,,---,0.00,VWS V14.00,2013-02-23 12:59:00,
2013-02-23 05:04:00,43.0,16.9,29.91,WSW,250,27.0,33.0,34,0.00,,---,0.00,VWS V14.00,2013-02-23 13:04:00,
2013-02-23 05:14:00,41.9,17.9,29.90,WNW,294,15.0,27.0,38,0.00,,---,0.00,VWS V14.00,2013-02-23 13:14:00,
2013-02-23 05:19:00,41.4,19.2,29.91,West,277,25.0,37.0,40,0.00,,---,0.00,VWS V14.00,2013-02-23 13:19:00,
2013-02-23 05:24:00,41.3,19.1,29.91,West,274,24.0,39.0,40,0.00,,---,0.00,VWS V14.00,2013-02-23 13:24:00,
2013-02-23 05:29:00,40.9,18.7,29.91,West,275,22.0,41.0,40,0.00,,---,0.00,VWS V14.00,2013-02-23 13:29:00,
2013-02-23 05:34:00,40.2,19.2,29.92,West,265,21.0,26.0,42,0.00,,---,0.00,VWS V14.00,2013-02-23 13:34:00,
2013-02-23 05:44:00,39.3,20.0,29.92,West,272,26.0,30.0,46,0.00,,---,0.00,VWS V14.00,2013-02-23 13:44:00,
2013-02-23 05:49:00,39.1,20.3,29.92,West,259,23.0,26.0,46,0.00,,---,0.00,VWS V14.00,2013-02-23 13:49:00,
2013-02-23 05:54:00,38.7,20.5,29.92,West,269,15.0,25.0,48,0.00,,---,0.00,VWS V14.00,2013-02-23 13:54:00,
2013-02-23 05:59:00,38.5,19.8,29.93,West,266,16.0,22.0,46,0.00,,---,0.00,VWS V14.00,2013-02-23 13:59:00,
2013-02-23 06:04:00,38.4,20.2,29.94,West,279,15.0,24.0,48,0.00,,---,0.00,VWS V14.00,2013-02-23 14:04:00,
2013-02-23 06:09:00,38.2,20.5,29.95,WNW,288,11.0,25.0,48,0.00,,---,0.00,VWS V14.00,2013-02-23 14:09:00,
2013-02-23 06:14:00,37.8,19.6,29.95,WNW,283,13.0,23.0,48,0.00,,---,0.00,VWS V14.00,2013-02-23 14:14:00,
2013-02-23 06:19:00,37.7,19.0,29.96,NW,305,10.0,13.0,46,0.00,,---,0.00,VWS V14.00,2013-02-23 14:19:00,
2013-02-23 06:24:00,37.5,18.9,29.96,NW,316,7.0,15.0,46,0.00,,---,0.00,VWS V14.00,2013-02-23 14:24:00,
2013-02-23 06:29:00,37.3,18.7,29.96,NW,316,5.0,8.0,46,0.00,,---,0.00,VWS V14.00,2013-02-23 14:29:00,
2013-02-23 06:34:00,37.2,18.6,29.96,NW,313,8.0,15.0,46,0.00,,---,0.00,VWS V14.00,2013-02-23 14:34:00,
2013-02-23 06:39:00,37.3,18.7,29.97,NW,309,8.0,13.0,46,0.00,,---,0.00,VWS V14.00,2013-02-23 14:39:00,
2013-02-23 06:44:00,37.2,18.6,29.97,NW,306,10.0,15.0,46,0.00,,---,0.00,VWS V14.00,2013-02-23 14:44:00,
2013-02-23 06:49:00,37.0,18.4,29.98,NW,313,14.0,15.0,46,0.00,,---,0.00,VWS V14.00,2013-02-23 14:49:00,
2013-02-23 06:54:00,37.1,18.0,29.98,NW,304,20.0,23.0,46,0.00,,---,0.00,VWS V14.00,2013-02-23 14:54:00,
2013-02-23 06:59:00,37.1,16.4,29.98,NW,312,19.0,27.0,42,0.00,,---,0.00,VWS V14.00,2013-02-23 14:59:00,
2013-02-23 07:04:00,37.1,17.0,29.98,NW,307,18.0,24.0,44,0.00,,---,0.00,VWS V14.00,2013-02-23 15:04:00,
2013-02-23 07:09:00,37.0,17.4,29.98,NW,323,10.0,22.0,44,0.00,,---,0.00,VWS V14.00,2013-02-23 15:09:00,
2013-02-23 07:14:00,36.7,18.6,29.99,NNW,339,18.0,22.0,48,0.00,,---,0.00,VWS V14.00,2013-02-23 15:14:00,
2013-02-23 07:19:00,36.2,19.1,29.99,NNW,336,15.0,23.0,50,0.00,,---,0.00,VWS V14.00,2013-02-23 15:19:00,
2013-02-23 07:29:00,34.9,21.0,30.00,North,360,12.0,18.0,56,0.00,,---,0.00,VWS V14.00,2013-02-23 15:29:00,
2013-02-23 07:34:00,35.0,21.1,30.00,North,355,12.0,16.0,56,0.00,,---,0.00,VWS V14.00,2013-02-23 15:34:00,
2013-02-23 07:39:00,35.3,21.0,30.00,NNW,337,12.0,24.0,56,0.00,,---,0.00,VWS V14.00,2013-02-23 15:39:00,
2013-02-23 07:44:00,35.4,21.1,30.01,NNW,338,14.0,21.0,56,0.00,,---,0.00,VWS V14.00,2013-02-23 15:44:00,
2013-02-23 07:49:00,35.5,21.2,30.01,NNW,340,21.0,21.0,56,0.00,,---,0.00,VWS V14.00,2013-02-23 15:49:00,
2013-02-23 07:54:00,35.8,21.4,30.01,NNW,340,13.0,21.0,56,0.00,,---,0.00,VWS V14.00,2013-02-23 15:54:00,
2013-02-23 07:59:00,35.9,21.5,30.02,NNW,344,20.0,21.0,56,0.00,,---,0.00,VWS V14.00,2013-02-23 15:59:00,
2013-02-23 08:09:00,35.9,21.1,30.02,NNW,340,7.0,15.0,54,0.00,,---,0.00,VWS V14.00,2013-02-23 16:09:00,
2013-02-23 08:14:00,36.1,21.7,30.02,NNW,338,10.0,13.0,56,0.00,,---,0.00,VWS V14.00,2013-02-23 16:14:00,
2013-02-23 08:19:00,35.9,20.7,30.02,NNW,330,11.0,16.0,54,0.00,,---,0.00,VWS V14.00,2013-02-23 16:19:00,
2013-02-23 08:29:00,36.8,20.1,30.02,WNW,286,13.0,21.0,50,0.00,,---,0.00,VWS V14.00,2013-02-23 16:29:00,
2013-02-23 08:34:00,37.5,19.9,30.03,WNW,286,14.0,21.0,48,0.00,,---,0.00,VWS V14.00,2013-02-23 16:34:00,
2013-02-23 08:39:00,37.8,19.1,30.03,West,279,16.0,20.0,46,0.00,,---,0.00,VWS V14.00,2013-02-23 16:39:00,
2013-02-23 08:44:00,37.9,18.7,30.04,WNW,297,11.0,21.0,46,0.00,,---,0.00,VWS V14.00,2013-02-23 16:44:00,
2013-02-23 08:54:00,38.3,17.0,30.03,WNW,302,14.0,18.0,42,0.00,,---,0.00,VWS V14.00,2013-02-23 16:54:00,
2013-02-23 08:59:00,38.5,15.4,30.03,NW,304,22.0,22.0,38,0.00,,---,0.00,VWS V14.00,2013-02-23 16:59:00,
2013-02-23 09:04:00,38.1,18.9,30.03,NNW,338,19.0,25.0,46,0.00,,---,0.00,VWS V14.00,2013-02-23 17:04:00,
2013-02-23 09:14:00,36.6,20.0,30.03,North,9,15.0,24.0,50,0.00,,---,0.00,VWS V14.00,2013-02-23 17:14:00,
2013-02-23 09:24:00,37.1,20.4,30.04,NNE,31,15.0,22.0,50,0.00,,---,0.00,VWS V14.00,2013-02-23 17:24:00,
2013-02-23 09:29:00,36.9,20.2,30.04,NE,34,19.0,20.0,50,0.00,,---,0.00,VWS V14.00,2013-02-23 17:29:00,
2013-02-23 09:34:00,36.9,20.7,30.04,NE,51,22.0,23.0,52,0.00,,---,0.00,VWS V14.00,2013-02-23 17:34:00,
2013-02-23 09:39:00,36.8,20.6,30.04,NE,49,15.0,25.0,52,0.00,,---,0.00,VWS V14.00,2013-02-23 17:39:00,
2013-02-23 09:49:00,36.7,19.6,30.04,North,9,15.0,21.0,50,0.00,,---,0.00,VWS V14.00,2013-02-23 17:49:00,
2013-02-23 09:54:00,37.3,19.7,30.04,North,360,12.0,20.0,48,0.00,,---,0.00,VWS V14.00,2013-02-23 17:54:00,
2013-02-23 09:59:00,36.6,18.0,30.04,North,10,14.0,20.0,46,0.00,,---,0.00,VWS V14.00,2013-02-23 17:59:00,
2013-02-23 10:09:00,37.2,18.6,30.04,NNE,13,14.0,22.0,46,0.00,,---,0.00,VWS V14.00,2013-02-23 18:09:00,
2013-02-23 10:14:00,37.1,18.5,30.04,North,11,19.0,22.0,46,0.00,,---,0.00,VWS V14.00,2013-02-23 18:14:00,
2013-02-23 10:19:00,37.1,19.0,30.04,NNE,29,12.0,24.0,48,0.00,,---,0.00,VWS V14.00,2013-02-23 18:19:00,
2013-02-23 10:24:00,36.8,18.2,30.05,North,355,14.0,23.0,46,0.00,,---,0.00,VWS V14.00,2013-02-23 18:24:00,
2013-02-23 10:29:00,36.5,18.0,30.05,North,5,18.0,24.0,46,0.00,,---,0.00,VWS V14.00,2013-02-23 18:29:00,
2013-02-23 10:34:00,36.6,18.0,30.05,North,351,15.0,21.0,46,0.00,,---,0.00,VWS V14.00,2013-02-23 18:34:00,
2013-02-23 10:44:00,35.7,17.2,30.05,North,355,13.0,25.0,46,0.00,,---,0.00,VWS V14.00,2013-02-23 18:44:00,
2013-02-23 10:49:00,35.9,16.9,30.05,North,349,20.0,23.0,46,0.00,,---,0.00,VWS V14.00,2013-02-23 18:49:00,
2013-02-23 10:54:00,36.4,16.8,30.05,NNE,13,20.0,21.0,44,0.00,,---,0.00,VWS V14.00,2013-02-23 18:54:00,
2013-02-23 11:04:00,35.3,15.8,30.06,North,5,16.0,22.0,44,0.00,,---,0.00,VWS V14.00,2013-02-23 19:04:00,
2013-02-23 11:09:00,35.2,15.8,30.06,NNE,21,11.0,20.0,44,0.00,,---,0.00,VWS V14.00,2013-02-23 19:09:00,
2013-02-23 11:14:00,35.3,15.8,30.06,NNE,27,14.0,22.0,44,0.00,,---,0.00,VWS V14.00,2013-02-23 19:14:00,
2013-02-23 11:19:00,35.3,15.8,30.06,North,5,15.0,22.0,44,0.00,,---,0.00,VWS V14.00,2013-02-23 19:19:00,
2013-02-23 11:29:00,36.0,15.9,30.06,NNW,340,20.0,25.0,44,0.00,,---,0.00,VWS V14.00,2013-02-23 19:29:00,
2013-02-23 11:39:00,36.1,15.5,30.06,North,5,13.0,24.0,42,0.00,,---,0.00,VWS V14.00,2013-02-23 19:39:00,
2013-02-23 11:44:00,36.2,15.6,30.06,NNW,338,13.0,24.0,42,0.00,,---,0.00,VWS V14.00,2013-02-23 19:44:00,
2013-02-23 11:54:00,36.6,16.0,30.06,North,355,20.0,25.0,42,0.00,,---,0.00,VWS V14.00,2013-02-23 19:54:00,
2013-02-23 11:59:00,37.2,15.4,30.06,North,360,22.0,24.0,40,0.00,,---,0.00,VWS V14.00,2013-02-23 19:59:00,
2013-02-23 12:09:00,36.8,15.0,30.06,NNE,17,11.0,21.0,40,0.00,,---,0.00,VWS V14.00,2013-02-23 20:09:00,
2013-02-23 12:14:00,36.8,15.0,30.06,NNE,17,14.0,22.0,40,0.00,,---,0.00,VWS V14.00,2013-02-23 20:14:00,
2013-02-23 12:19:00,37.0,14.6,30.06,North,5,21.0,25.0,40,0.00,,---,0.00,VWS V14.00,2013-02-23 20:19:00,
2013-02-23 12:24:00,36.4,14.1,30.06,NE,37,12.0,23.0,40,0.00,,---,0.00,VWS V14.00,2013-02-23 20:24:00,
2013-02-23 12:34:00,37.2,13.6,30.05,NNE,21,12.0,24.0,38,0.00,,---,0.00,VWS V14.00,2013-02-23 20:34:00,
2013-02-23 12:39:00,36.8,12.7,30.05,NNW,347,16.0,28.0,36,0.00,,---,0.00,VWS V14.00,2013-02-23 20:39:00,
2013-02-23 12:44:00,36.6,13.1,30.05,North,355,20.0,24.0,38,0.00,,---,0.00,VWS V14.00,2013-02-23 20:44:00,
2013-02-23 12:49:00,36.9,12.1,30.05,North,355,21.0,23.0,36,0.00,,---,0.00,VWS V14.00,2013-02-23 20:49:00,
2013-02-23 12:59:00,37.3,11.9,30.05,NW,322,21.0,23.0,34,0.00,,---,0.00,VWS V14.00,2013-02-23 20:59:00,
2013-02-23 13:09:00,37.7,11.5,30.05,North,5,13.0,23.0,34,0.00,,---,0.00,VWS V14.00,2013-02-23 21:09:00,
2013-02-23 13:14:00,38.3,11.4,30.05,North,9,20.0,23.0,32,0.00,,---,0.00,VWS V14.00,2013-02-23 21:14:00,
2013-02-23 13:19:00,38.8,11.8,30.05,North,355,22.0,26.0,32,0.00,,---,0.00,VWS V14.00,2013-02-23 21:19:00,
2013-02-23 13:24:00,37.6,9.4,30.05,NNE,17,10.0,27.0,30,0.00,,---,0.00,VWS V14.00,2013-02-23 21:24:00,
2013-02-23 13:29:00,37.9,9.6,30.04,NNW,335,25.0,26.0,30,0.00,,---,0.00,VWS V14.00,2013-02-23 21:29:00,
2013-02-23 13:34:00,37.3,9.1,30.04,North,11,19.0,27.0,30,0.00,,---,0.00,VWS V14.00,2013-02-23 21:34:00,
2013-02-23 13:39:00,36.9,8.7,30.04,North,360,18.0,27.0,30,0.00,,---,0.00,VWS V14.00,2013-02-23 21:39:00,
2013-02-23 13:44:00,37.0,9.6,30.04,North,10,26.0,26.0,32,0.00,,---,0.00,VWS V14.00,2013-02-23 21:44:00,
2013-02-23 13:49:00,36.7,8.6,30.04,North,9,15.0,26.0,30,0.00,,---,0.00,VWS V14.00,2013-02-23 21:49:00,
2013-02-23 13:59:00,36.9,8.7,30.04,North,351,11.0,26.0,30,0.00,,---,0.00,VWS V14.00,2013-02-23 21:59:00,
2013-02-23 14:04:00,37.1,8.9,30.04,North,9,16.0,23.0,30,0.00,,---,0.00,VWS V14.00,2013-02-23 22:04:00,
2013-02-23 14:09:00,37.3,9.1,30.05,North,5,22.0,25.0,30,0.00,,---,0.00,VWS V14.00,2013-02-23 22:09:00,
2013-02-23 14:14:00,37.0,8.8,30.05,North,11,14.0,24.0,30,0.00,,---,0.00,VWS V14.00,2013-02-23 22:14:00,
2013-02-23 14:19:00,36.9,8.0,30.05,North,350,16.0,23.0,30,0.00,,---,0.00,VWS V14.00,2013-02-23 22:19:00,
2013-02-23 14:24:00,37.2,8.3,30.05,North,351,15.0,25.0,30,0.00,,---,0.00,VWS V14.00,2013-02-23 22:24:00,
2013-02-23 14:29:00,36.8,7.9,30.05,North,355,20.0,24.0,30,0.00,,---,0.00,VWS V14.00,2013-02-23 22:29:00,
2013-02-23 14:34:00,36.9,8.7,30.05,NNW,348,21.0,23.0,30,0.00,,---,0.00,VWS V14.00,2013-02-23 22:34:00,
2013-02-23 14:39:00,36.5,9.1,30.05,North,351,16.0,22.0,32,0.00,,---,0.00,VWS V14.00,2013-02-23 22:39:00,
2013-02-23 14:44:00,36.5,8.4,30.05,NE,34,14.0,22.0,30,0.00,,---,0.00,VWS V14.00,2013-02-23 22:44:00,
2013-02-23 14:49:00,36.6,8.5,30.05,NNE,15,22.0,22.0,30,0.00,,---,0.00,VWS V14.00,2013-02-23 22:49:00,
2013-02-23 14:54:00,36.8,7.9,30.05,North,360,13.0,22.0,30,0.00,,---,0.00,VWS V14.00,2013-02-23 22:54:00,
2013-02-23 14:59:00,37.1,7.4,30.05,NNW,347,13.0,20.0,28,0.00,,---,0.00,VWS V14.00,2013-02-23 22:59:00,
2013-02-23 15:04:00,36.8,7.9,30.06,North,360,18.0,21.0,30,0.00,,---,0.00,VWS V14.00,2013-02-23 23:04:00,
2013-02-23 15:09:00,36.6,7.7,30.06,North,9,21.0,28.0,30,0.00,,---,0.00,VWS V14.00,2013-02-23 23:09:00,
2013-02-23 15:14:00,36.3,7.5,30.06,North,5,15.0,24.0,30,0.00,,---,0.00,VWS V14.00,2013-02-23 23:14:00,
2013-02-23 15:19:00,36.2,7.4,30.05,North,5,16.0,26.0,30,0.00,,---,0.00,VWS V14.00,2013-02-23 23:19:00,
2013-02-23 15:24:00,36.0,6.5,30.06,North,360,18.0,22.0,28,0.00,,---,0.00,VWS V14.00,2013-02-23 23:24:00,
2013-02-23 15:29:00,35.8,6.3,30.06,NNE,29,12.0,23.0,28,0.00,,---,0.00,VWS V14.00,2013-02-23 23:29:00,
2013-02-23 15:34:00,35.9,6.4,30.06,North,9,16.0,23.0,28,0.00,,---,0.00,VWS V14.00,2013-02-23 23:34:00,
2013-02-23 15:39:00,36.0,5.7,30.06,North,5,18.0,22.0,28,0.00,,---,0.00,VWS V14.00,2013-02-23 23:39:00,
2013-02-23 15:44:00,35.9,5.6,30.06,NNE,16,12.0,25.0,28,0.00,,---,0.00,VWS V14.00,2013-02-23 23:44:00,
2013-02-23 15:49:00,35.7,6.2,30.06,NNE,17,12.0,21.0,28,0.00,,---,0.00,VWS V14.00,2013-02-23 23:49:00,
2013-02-23 15:54:00,35.7,7.0,30.06,NNE,14,9.0,18.0,30,0.00,,---,0.00,VWS V14.00,2013-02-23 23:54:00,
2013-02-23 15:59:00,36.0,6.5,30.06,NNE,14,14.0,21.0,28,0.00,,---,0.00,VWS V14.00,2013-02-23 23:59:00,
2013-02-23 16:04:00,35.9,5.6,30.06,North,5,19.0,21.0,28,0.00,,---,0.00,VWS V14.00,2013-02-24 00:04:00,
2013-02-23 16:09:00,35.5,6.0,30.07,NNE,13,16.0,21.0,28,0.00,,---,0.00,VWS V14.00,2013-02-24 00:09:00,
2013-02-23 16:14:00,35.4,6.7,30.07,NNW,328,21.0,24.0,30,0.00,,---,0.00,VWS V14.00,2013-02-24 00:14:00,
2013-02-23 16:19:00,35.1,6.4,30.07,North,360,14.0,22.0,30,0.00,,---,0.00,VWS V14.00,2013-02-24 00:19:00,
2013-02-23 16:24:00,34.9,6.3,30.07,NNE,13,14.0,21.0,30,0.00,,---,0.00,VWS V14.00,2013-02-24 00:24:00,
2013-02-23 16:29:00,34.8,6.9,30.07,NNE,13,12.0,20.0,30,0.00,,---,0.00,VWS V14.00,2013-02-24 00:29:00,
2013-02-23 16:34:00,34.9,6.3,30.07,North,9,13.0,19.0,30,0.00,,---,0.00,VWS V14.00,2013-02-24 00:34:00,
2013-02-23 16:39:00,34.7,6.8,30.08,North,5,21.0,21.0,30,0.00,,---,0.00,VWS V14.00,2013-02-24 00:39:00,
2013-02-23 16:49:00,34.0,6.2,30.08,NNE,22,11.0,18.0,30,0.00,,---,0.00,VWS V14.00,2013-02-24 00:49:00,
2013-02-23 16:54:00,33.5,6.5,30.08,North,5,14.0,22.0,32,0.00,,---,0.00,VWS V14.00,2013-02-24 00:54:00,
2013-02-23 16:59:00,33.0,6.7,30.08,North,360,16.0,22.0,32,0.00,,---,0.00,VWS V14.00,2013-02-24 00:59:00,
2013-02-23 17:04:00,32.8,7.2,30.08,NNE,18,14.0,16.0,34,0.00,,---,0.00,VWS V14.00,2013-02-24 01:04:00,
2013-02-23 17:09:00,32.8,7.2,30.08,NNE,14,13.0,20.0,34,0.00,,---,0.00,VWS V14.00,2013-02-24 01:09:00,
2013-02-23 17:14:00,32.5,6.9,30.08,NNE,21,10.0,19.0,34,0.00,,---,0.00,VWS V14.00,2013-02-24 01:14:00,
2013-02-23 17:19:00,32.2,6.7,30.09,NNE,13,11.0,18.0,34,0.00,,---,0.00,VWS V14.00,2013-02-24 01:19:00,
2013-02-23 17:24:00,31.8,6.3,30.09,North,10,8.0,18.0,34,0.00,,---,0.00,VWS V14.00,2013-02-24 01:24:00,
2013-02-23 17:29:00,31.5,7.3,30.09,NNE,13,10.0,16.0,36,0.00,,---,0.00,VWS V14.00,2013-02-24 01:29:00,
2013-02-23 17:34:00,31.4,7.2,30.09,NNE,14,12.0,18.0,36,0.00,,---,0.00,VWS V14.00,2013-02-24 01:34:00,
2013-02-23 17:39:00,31.0,6.9,30.09,NNE,15,13.0,14.0,36,0.00,,---,0.00,VWS V14.00,2013-02-24 01:39:00,
2013-02-23 17:44:00,30.8,6.7,30.09,NNE,27,11.0,15.0,36,0.00,,---,0.00,VWS V14.00,2013-02-24 01:44:00,
2013-02-23 17:49:00,30.6,6.5,30.10,NNE,19,13.0,15.0,36,0.00,,---,0.00,VWS V14.00,2013-02-24 01:49:00,
2013-02-23 17:54:00,30.5,7.1,30.10,NNE,22,11.0,18.0,36,0.00,,---,0.00,VWS V14.00,2013-02-24 01:54:00,
2013-02-23 17:59:00,30.4,7.6,30.10,NNE,17,10.0,15.0,38,0.00,,---,0.00,VWS V14.00,2013-02-24 01:59:00,
2013-02-23 18:04:00,30.1,7.9,30.10,NNE,21,11.0,13.0,38,0.00,,---,0.00,VWS V14.00,2013-02-24 02:04:00,
2013-02-23 18:09:00,29.7,8.1,30.10,NNE,25,10.0,13.0,40,0.00,,---,0.00,VWS V14.00,2013-02-24 02:09:00,
2013-02-23 18:14:00,29.5,7.9,30.10,NNE,26,8.0,11.0,40,0.00,,---,0.00,VWS V14.00,2013-02-24 02:14:00,
2013-02-23 18:19:00,29.3,7.7,30.10,NNE,27,7.0,10.0,40,0.00,,---,0.00,VWS V14.00,2013-02-24 02:19:00,
2013-02-23 18:25:00,29.4,7.8,30.11,NNE,27,8.0,10.0,40,0.00,,---,0.00,VWS V14.00,2013-02-24 02:25:00,
2013-02-23 18:34:00,27.8,7.4,30.11,NNE,27,6.0,8.0,42,0.00,,---,0.00,VWS V14.00,2013-02-24 02:34:00,
2013-02-23 18:39:00,27.8,7.4,30.12,NNE,26,7.0,8.0,42,0.00,,---,0.00,VWS V14.00,2013-02-24 02:39:00,
2013-02-23 18:44:00,27.8,7.4,30.12,NNE,27,6.0,9.0,42,0.00,,---,0.00,VWS V14.00,2013-02-24 02:44:00,
2013-02-23 18:49:00,27.8,8.0,30.12,NNE,26,8.0,9.0,42,0.00,,---,0.00,VWS V14.00,2013-02-24 02:49:00,
2013-02-23 18:55:00,27.8,8.0,30.12,NNE,26,11.0,11.0,42,0.00,,---,0.00,VWS V14.00,2013-02-24 02:55:00,
2013-02-23 19:04:00,28.4,9.0,30.12,NNE,26,8.0,13.0,44,0.00,,---,0.00,VWS V14.00,2013-02-24 03:04:00,
2013-02-23 19:09:00,28.1,9.3,30.12,NNE,26,8.0,10.0,44,0.00,,---,0.00,VWS V14.00,2013-02-24 03:09:00,
2013-02-23 19:14:00,27.7,9.4,30.12,NNE,26,9.0,10.0,46,0.00,,---,0.00,VWS V14.00,2013-02-24 03:14:00,
2013-02-23 19:19:00,27.7,9.9,30.12,NNE,29,8.0,11.0,46,0.00,,---,0.00,VWS V14.00,2013-02-24 03:19:00,
2013-02-23 19:24:00,27.9,10.1,30.12,NNE,30,11.0,13.0,46,0.00,,---,0.00,VWS V14.00,2013-02-24 03:24:00,
2013-02-23 19:29:00,28.0,10.1,30.12,NE,34,11.0,13.0,46,0.00,,---,0.00,VWS V14.00,2013-02-24 03:29:00,
2013-02-23 19:34:00,27.9,10.1,30.12,NE,36,10.0,11.0,46,0.00,,---,0.00,VWS V14.00,2013-02-24 03:34:00,
2013-02-23 19:39:00,27.7,10.4,30.13,NE,37,4.0,11.0,48,0.00,,---,0.00,VWS V14.00,2013-02-24 03:39:00,
2013-02-23 19:44:00,26.9,9.6,30.14,NE,37,6.0,8.0,48,0.00,,---,0.00,VWS V14.00,2013-02-24 03:44:00,
2013-02-23 19:49:00,26.4,9.6,30.14,NE,37,5.0,7.0,48,0.00,,---,0.00,VWS V14.00,2013-02-24 03:49:00,
2013-02-23 19:54:00,26.2,9.4,30.14,NE,37,7.0,8.0,48,0.00,,---,0.00,VWS V14.00,2013-02-24 03:54:00,
2013-02-23 19:59:00,26.1,9.3,30.14,NE,37,5.0,7.0,48,0.00,,---,0.00,VWS V14.00,2013-02-24 03:59:00,
2013-02-23 20:04:00,26.0,9.7,30.14,NE,37,6.0,6.0,50,0.00,,---,0.00,VWS V14.00,2013-02-24 04:04:00,
2013-02-23 20:09:00,25.9,9.6,30.14,NE,37,6.0,6.0,50,0.00,,---,0.00,VWS V14.00,2013-02-24 04:09:00,
2013-02-23 20:14:00,25.8,9.5,30.14,NE,37,6.0,7.0,50,0.00,,---,0.00,VWS V14.00,2013-02-24 04:14:00,
2013-02-23 20:19:00,24.8,8.6,30.14,NE,38,6.0,8.0,50,0.00,,---,0.00,VWS V14.00,2013-02-24 04:19:00,
2013-02-23 20:24:00,24.7,8.9,30.14,NE,38,6.0,8.0,50,0.00,,---,0.00,VWS V14.00,2013-02-24 04:24:00,
2013-02-23 20:29:00,24.0,8.7,30.14,NE,38,6.0,6.0,52,0.00,,---,0.00,VWS V14.00,2013-02-24 04:29:00,
2013-02-23 20:39:00,23.9,9.1,30.14,NE,46,7.0,9.0,52,0.00,,---,0.00,VWS V14.00,2013-02-24 04:39:00,
2013-02-23 20:44:00,23.4,9.0,30.14,NE,46,5.0,8.0,54,0.00,,---,0.00,VWS V14.00,2013-02-24 04:44:00,
2013-02-23 20:49:00,23.0,9.1,30.14,NE,46,6.0,7.0,54,0.00,,---,0.00,VWS V14.00,2013-02-24 04:49:00,
2013-02-23 20:54:00,23.2,9.6,30.14,NE,51,9.0,9.0,56,0.00,,---,0.00,VWS V14.00,2013-02-24 04:54:00,
2013-02-23 20:59:00,23.3,9.3,30.14,NE,51,5.0,9.0,54,0.00,,---,0.00,VWS V14.00,2013-02-24 04:59:00,
2013-02-23 21:04:00,23.4,9.4,30.14,NE,51,4.0,6.0,54,0.00,,---,0.00,VWS V14.00,2013-02-24 05:04:00,
2013-02-23 21:09:00,23.0,9.1,30.14,NE,51,4.0,6.0,54,0.00,,---,0.00,VWS V14.00,2013-02-24 05:09:00,
2013-02-23 21:14:00,23.4,9.8,30.14,NE,51,5.0,6.0,56,0.00,,---,0.00,VWS V14.00,2013-02-24 05:14:00,
2013-02-23 21:19:00,23.8,9.8,30.14,NE,51,5.0,6.0,54,0.00,,---,0.00,VWS V14.00,2013-02-24 05:19:00,
2013-02-23 21:24:00,23.8,9.8,30.14,NE,51,3.0,6.0,54,0.00,,---,0.00,VWS V14.00,2013-02-24 05:24:00,
2013-02-23 21:29:00,23.8,9.4,30.14,NE,51,4.0,6.0,54,0.00,,---,0.00,VWS V14.00,2013-02-24 05:29:00,
2013-02-23 21:34:00,24.0,9.1,30.14,NE,51,5.0,7.0,52,0.00,,---,0.00,VWS V14.00,2013-02-24 05:34:00,
2013-02-23 21:39:00,23.8,9.4,30.14,NE,51,6.0,7.0,54,0.00,,---,0.00,VWS V14.00,2013-02-24 05:39:00,
2013-02-23 21:44:00,23.6,9.2,30.13,NE,51,4.0,6.0,54,0.00,,---,0.00,VWS V14.00,2013-02-24 05:44:00,
2013-02-23 21:49:00,23.4,8.6,30.14,NE,51,5.0,5.0,52,0.00,,---,0.00,VWS V14.00,2013-02-24 05:49:00,
2013-02-23 21:54:00,23.3,8.5,30.14,NE,51,2.0,6.0,52,0.00,,---,0.00,VWS V14.00,2013-02-24 05:54:00,
2013-02-23 21:59:00,23.4,8.6,30.15,NE,51,3.0,4.0,52,0.00,,---,0.00,VWS V14.00,2013-02-24 05:59:00,
2013-02-23 22:04:00,23.8,8.1,30.15,NE,51,2.0,5.0,50,0.00,,---,0.00,VWS V14.00,2013-02-24 06:04:00,
2013-02-23 22:09:00,24.1,7.9,30.16,NE,51,3.0,4.0,50,0.00,,---,0.00,VWS V14.00,2013-02-24 06:09:00,
2013-02-23 22:14:00,24.3,8.1,30.16,NE,51,2.0,4.0,50,0.00,,---,0.00,VWS V14.00,2013-02-24 06:14:00,
2013-02-23 22:19:00,24.4,8.2,30.16,NE,51,2.0,4.0,50,0.00,,---,0.00,VWS V14.00,2013-02-24 06:19:00,
2013-02-23 22:24:00,24.2,8.0,30.16,NE,51,5.0,5.0,50,0.00,,---,0.00,VWS V14.00,2013-02-24 06:24:00,
2013-02-23 22:29:00,24.1,8.4,30.16,NE,51,4.0,5.0,50,0.00,,---,0.00,VWS V14.00,2013-02-24 06:29:00,
2013-02-23 22:34:00,23.9,8.2,30.16,NE,51,4.0,5.0,50,0.00,,---,0.00,VWS V14.00,2013-02-24 06:34:00,
2013-02-23 22:39:00,24.0,8.7,30.16,NE,51,5.0,5.0,52,0.00,,---,0.00,VWS V14.00,2013-02-24 06:39:00,
2013-02-23 22:44:00,24.2,8.9,30.16,NE,51,4.0,5.0,52,0.00,,---,0.00,VWS V14.00,2013-02-24 06:44:00,
2013-02-23 22:49:00,24.2,8.9,30.16,NE,51,5.0,6.0,52,0.00,,---,0.00,VWS V14.00,2013-02-24 06:49:00,
2013-02-23 22:54:00,24.4,9.1,30.16,NE,51,5.0,6.0,52,0.00,,---,0.00,VWS V14.00,2013-02-24 06:54:00,
2013-02-23 22:59:00,24.5,8.8,30.16,NE,51,5.0,6.0,50,0.00,,---,0.00,VWS V14.00,2013-02-24 06:59:00,
2013-02-23 23:04:00,23.9,8.6,30.16,NE,51,4.0,7.0,52,0.00,,---,0.00,VWS V14.00,2013-02-24 07:04:00,
2013-02-23 23:09:00,24.0,8.7,30.16,NE,51,4.0,6.0,52,0.00,,---,0.00,VWS V14.00,2013-02-24 07:09:00,
2013-02-23 23:14:00,24.0,9.1,30.16,NE,51,4.0,6.0,52,0.00,,---,0.00,VWS V14.00,2013-02-24 07:14:00,
2013-02-23 23:19:00,23.7,8.9,30.16,NE,51,5.0,5.0,52,0.00,,---,0.00,VWS V14.00,2013-02-24 07:19:00,
2013-02-23 23:24:00,23.6,9.2,30.16,NE,51,4.0,5.0,54,0.00,,---,0.00,VWS V14.00,2013-02-24 07:24:00,
2013-02-23 23:29:00,23.6,9.2,30.16,NE,51,2.0,5.0,54,0.00,,---,0.00,VWS V14.00,2013-02-24 07:29:00,
2013-02-23 23:34:00,23.4,9.0,30.16,NE,51,4.0,5.0,54,0.00,,---,0.00,VWS V14.00,2013-02-24 07:34:00,
2013-02-23 23:44:00,23.9,9.5,30.16,NE,51,3.0,7.0,54,0.00,,---,0.00,VWS V14.00,2013-02-24 07:44:00,
2013-02-23 23:49:00,23.8,9.4,30.16,NE,51,0.0,5.0,54,0.00,,---,0.00,VWS V14.00,2013-02-24 07:49:00,
2013-02-23 23:54:00,23.5,9.1,30.16,NE,51,0.0,0.0,54,0.00,,---,0.00,VWS V14.00,2013-02-24 07:54:00,